DELTA 1 DEB, 42083

Orbit data source: Space-Track

DELTA 1 DEB, 42083 is space debris in SSO originally from a launch on Sun, 15 Dec 1968 UTC launched from the Air Force Western Test Range (AFWTR). Debris objects in space refer to the collection of defunct objects orbiting the Earth. Examples of debris include non-operational satellites, rocket bodies, and fragments generated from explosions, collisions, or faulty payload assembly.

Loading next visibility...
Identifier
42083, 1968-114K
Orbit
SSO
Last TLE update
12 hours ago
Origin
Manufacturer
Aerojet
Mission
Spacecraft
Bus & Motor
Unknown
Mass
Unknown
Launch date (UTC)
1968-12-15 (57 years ago)
Launch vehicle
Unknown
Launch site
Air Force Western Test Range (AFWTR)
Object type
Payload
Rocket body
Debris
Shape & HBR
Unknown
Radar Cross Section
Small (<0.1 m²)

Expand to show TLE details & history

TLE from 12 hours ago
0 DELTA 1 DEB
1 42083U 68114K   25183.75070815 -.00000131  00000-0 -21268-3 0  9998
2 42083 101.8815 182.9665 0282719 120.6377  58.9812 13.02100962  2688
Epoch: 2025-07-02T18:01Z
TLE epoch observation values (Epoch: 2025-07-02T18:01:01.184Z)
Latitude
-2.51639°
Longitude
171.15716°
Altitude
1,150.241 km
Speed
7.328 km/s
True Right ascension
00h 09m 45s
True Declination
-2° 30' 08"
Sunlit
Object was in daylight at epoch
Visualization orbit readout
Latitude
76.20517°
Longitude
-129.26346°
Altitude
1,066.244 km
Speed
7.421 km/s
Apparent Right ascension
05h 42m 41s
Apparent Declination
25° 50' 32"
Sunlit
Object is in daylight
Visualization observer readout
Local Sidereal Time
18:16:13
Azimuth
8.243° NNE
Elevation
-23.779°
Doppler factor
1
Orbital elements
Apogee altitude
1,467.054 km
Perigee altitude
1,035.653 km
Semi-major axis
7,629.49 km
Eccentricity
0.02827
Inclination
101.8815°
RAAN
182.9665°
Arg. of periapsis
120.6377°
True anomaly
Unknown
Mean anomaly
58.9812°
Eccentric anomaly
Unknown
Mean motion
3.25687 °/min
Orbital period
110.54 mins
BSTAR
-0.00021268
Loading maneuver chart data...
Loading SW <> Apogee altitude chart data...
Loading historical data...
Loading historical data...
Loading historical data...
Loading historical data...
Loading historical data...
Loading historical data...
Loading historical data...

DELTA 1 DEB Visibility forecast

Observer location: undefined°, undefined°

Span
Click to sort rows by Start time (UTC) header in descending order
Start Az.
Max El. time (UTC)
Max El. Az.
Max El.
End time (UTC)
End Az.
10 mins2025-07-03 12:10:32.240Z39.727° NE2025-07-03 12:15:32.240Z103.722° ESE30.294°2025-07-03 12:20:32.240Z162.454° S
10 mins2025-07-03 13:59:32.240Z355.637° N2025-07-03 14:04:32.240Z287.745° WNW30.31°2025-07-03 14:09:32.240Z234.66° WSW
11 mins2025-07-03 22:45:32.240Z122.429° SE2025-07-03 22:50:32.240Z69.32° E31.576°2025-07-03 22:56:32.240Z0.199° NNE
12 mins2025-07-04 00:33:32.240Z193.476° SSW2025-07-04 00:39:32.240Z260.121° W33.257°2025-07-04 00:45:32.240Z325.895° NNW
|